| time (UTC) | temp C | wind direction | speed KPH | gust KPH | rain 1hr cm | rain 24hr cm | rain mn cm | humidity % | barometer mb |
| 20260504231510 | 21 | 247 | 12.9 | 30.6 | 0.00 | 0.00 | 0.00 | 31 | 1005.6 |
| 20260504230016 | 21 | 219 | 19.3 | 32.2 | 0.00 | 0.00 | 0.00 | 31 | 1005.4 |
| 20260504224509 | 21 | 218 | 17.7 | 27.4 | 0.00 | 0.00 | 0.00 | 31 | 1005.2 |
| 20260504223043 | 21 | 229 | 4.8 | 17.7 | 0.00 | 0.00 | 0.00 | 32 | 1005.3 |
| 20260504221538 | 21 | 248 | 14.5 | 25.7 | 0.00 | 0.00 | 0.00 | 32 | 1005.5 |
| 20260504220036 | 21 | 251 | 14.5 | 33.8 | 0.00 | 0.00 | 0.00 | 32 | 1005.5 |
| 20260504214533 | 21 | 269 | 24.1 | 37.0 | 0.00 | 0.00 | 0.00 | 32 | 1005.7 |
| 20260504213053 | 21 | 286 | 17.7 | 29.0 | 0.00 | 0.00 | 0.00 | 32 | 1005.7 |
| 20260504211530 | 21 | 264 | 14.5 | 29.0 | 0.00 | 0.00 | 0.00 | 33 | 1005.7 |
| 20260504210027 | 21 | 220 | 16.1 | 40.2 | 0.00 | 0.00 | 0.00 | 35 | 1005.8 |
| 20260504204526 | 21 | 267 | 17.7 | 38.6 | 0.00 | 0.00 | 0.00 | 35 | 1006.0 |
| 20260504203023 | 21 | 271 | 22.5 | 33.8 | 0.00 | 0.00 | 0.00 | 34 | 1006.3 |
| 20260504201525 | 21 | 244 | 14.5 | 32.2 | 0.00 | 0.00 | 0.00 | 35 | 1006.3 |
| 20260504200051 | 21 | 287 | 24.1 | 41.8 | 0.00 | 0.00 | 0.00 | 34 | 1006.6 |
| 20260504194559 | 20 | 257 | 19.3 | 40.2 | 0.00 | 0.00 | 0.00 | 36 | 1006.8 |
| 20260504193051 | 20 | 299 | 22.5 | 38.6 | 0.00 | 0.00 | 0.00 | 34 | 1007.0 |
| 20260504191538 | 20 | 269 | 19.3 | 32.2 | 0.00 | 0.00 | 0.00 | 40 | 1007.1 |
| 20260504190034 | 19 | 250 | 16.1 | 33.8 | 0.00 | 0.00 | 0.00 | 41 | 1007.3 |
| 20260504184533 | 19 | 248 | 17.7 | 45.1 | 0.00 | 0.00 | 0.00 | 41 | 1007.4 |
| 20260504183027 | 19 | 294 | 27.4 | 37.0 | 0.00 | 0.00 | 0.00 | 41 | 1007.6 |
| 20260504181527 | 19 | 270 | 25.7 | 48.3 | 0.00 | 0.00 | 0.00 | 42 | 1007.6 |
| 20260504180022 | 19 | 263 | 20.9 | 51.5 | 0.00 | 0.00 | 0.00 | 42 | 1007.8 |
| 20260504174522 | 18 | 272 | 24.1 | 48.3 | 0.00 | 0.00 | 0.00 | 44 | 1008.0 |
| 20260504173030 | 18 | 275 | 24.1 | 48.3 | 0.00 | 0.00 | 0.00 | 45 | 1007.9 |
| 20260504171520 | 18 | 224 | 25.7 | 43.5 | 0.00 | 0.00 | 0.00 | 47 | 1008.2 |
| 20260504081506 | 8 | 238 | 19.3 | 32.2 | 0.00 | 0.00 | 0.00 | 59 | 1011.1 |
| 20260504044537 | 9 | 281 | 20.9 | 32.2 | 0.00 | 0.00 | 0.00 | 55 | 1011.9 |
| 20260504043033 | 9 | 250 | 16.1 | 27.4 | 0.00 | 0.00 | 0.00 | 55 | 1012.0 |
| 20260504041525 | 8 | 246 | 17.7 | 25.7 | 0.00 | 0.00 | 0.00 | 55 | 1012.1 |
| 20260504040025 | 9 | 360 | 11.3 | 20.9 | 0.00 | 0.00 | 0.00 | 54 | 1012.2 |
| 20260504034533 | 10 | 360 | 14.5 | 19.3 | 0.00 | 0.00 | 0.00 | 52 | 1012.2 |
| 20260504033103 | 10 | 360 | 11.3 | 17.7 | 0.00 | 0.00 | 0.00 | 51 | 1012.2 |
| 20260504031554 | 10 | 360 | 12.9 | 17.7 | 0.00 | 0.00 | 0.00 | 49 | 1012.4 |
| 20260504030051 | 10 | 360 | 9.7 | 17.7 | 0.00 | 0.00 | 0.00 | 49 | 1012.6 |
| 20260504024551 | 10 | 360 | 9.7 | 16.1 | 0.00 | 0.00 | 0.00 | 48 | 1012.8 |
| 20260504023050 | 10 | 360 | 11.3 | 17.7 | 0.00 | 0.00 | 0.00 | 47 | 1012.7 |
| 20260504021550 | 11 | 360 | 9.7 | 17.7 | 0.00 | 0.00 | 0.00 | 46 | 1012.6 |
| 20260504020048 | 11 | 270 | 4.8 | 17.7 | 0.00 | 0.00 | 0.00 | 46 | 1012.8 |
| 20260504014549 | 11 | 360 | 8.0 | 17.7 | 0.00 | 0.00 | 0.00 | 45 | 1012.9 |
| 20260504013050 | 11 | 360 | 4.8 | 9.7 | 0.00 | 0.00 | 0.00 | 45 | 1012.8 |
| 20260504011548 | 11 | 360 | 11.3 | 22.5 | 0.00 | 0.00 | 0.00 | 44 | 1012.7 |
| 20260504010015 | 11 | 360 | 8.0 | 24.1 | 0.00 | 0.00 | 0.00 | 44 | 1012.6 |
| 20260504004515 | 11 | 313 | 16.1 | 38.6 | 0.00 | 0.00 | 0.00 | 43 | 1012.6 |
| 20260504003011 | 11 | 284 | 27.4 | 48.3 | 0.00 | 0.00 | 0.00 | 45 | 1012.4 |
| 20260504001511 | 11 | 308 | 12.9 | 22.5 | 0.00 | 0.00 | 0.00 | 45 | 1012.3 |
| 20260504000010 | 11 | 267 | 6.4 | 12.9 | 0.00 | 0.00 | 0.00 | 47 | 1012.2 |
| 20260503234510 | 11 | 301 | 6.4 | 27.4 | 0.00 | 0.00 | 0.00 | 47 | 1012.1 |
| 20260503233007 | 11 | 344 | 11.3 | 32.2 | 0.00 | 0.00 | 0.00 | 47 | 1012.3 |